Home > Weather > Dickinson > Past weeks

Flag for USA Weather for the Past 2 Weeks in Dickinson, North Dakota, USA

Now
62 °F

Sunny.


Feels Like: 62 °F
Forecast: 47 / 71 °F
Wind: 21 mph from North

Location: Dickinson Municipal Airport

Current Time: May 6, 2016 at 9:21:03 AM

Latest Report: May 6, 2016 at 8:56 AM


Visibility: 10 mi

Pressure: 29.95 "Hg (27.47 "Hg at 735m altitude)

Humidity: 52%

Dew Point: 44 °F

Location of DickinsonLocation

Historic Weather in Dickinson — Graph

°F

Dickinson Temperature Yesterday

Maximum temperature yesterday: 84 °F (at 1:56 PM)
Minimum temperature yesterday: 50 °F (at 3:56 AM)
Average temperature yesterday: 68 °F

High & Low Weather Summary for the Past Weeks

 TemperatureHumidityPressure
High84 °F (May 5, 1:56 PM)100% (Apr 24, 10:54 AM)30.36 "Hg (Apr 24, 10:54 AM)
Low30 °F (May 1, 3:56 AM)15% (May 5, 3:56 PM)29.52 "Hg (Apr 24, 9:55 AM)
Average48 °F64%29.97 "Hg
* Reported Apr 21 7:56 AM — May 6 7:56 AM, Dickinson, Weather by CustomWeather, © 2016

Note: Actual official high and low records may vary slightly from our data, if they occured in-between our weather recording intervals... More about our weather records

Advertising

Dickinson Weather History for the Previous 24 Hours

Scroll right to see more
 ConditionsComfort  
Time TempWeatherWind HumidityBarometerVisibility
7:56 AM
Fri, May 6
60 °FSunny.16 mph58%29.91 "Hg10 mi
4:56 AM51 °FClear.8 mph71%29.77 "Hg10 mi
3:56 AM53 °FClear.9 mph72%29.76 "Hg10 mi
2:56 AM54 °FClear.8 mph69%29.75 "Hg10 mi
1:56 AM60 °FClear.6 mph56%29.74 "Hg10 mi
12:56 AM58 °FClear.10 mph58%29.74 "Hg10 mi
11:56 PM
Thu, May 5
56 °FClear.10 mph53%29.75 "Hg10 mi
10:56 PM58 °FClear.7 mph47%29.76 "Hg10 mi
9:56 PM58 °FClear.10 mph51%29.76 "Hg10 mi
8:56 PM65 °FClear.5 mph36%29.75 "Hg10 mi
7:56 PM78 °FSunny.3 mph18%29.74 "Hg10 mi
6:56 PM81 °FSunny.No wind21%29.74 "Hg10 mi
5:56 PM83 °FSunny.9 mph18%29.75 "Hg10 mi
4:56 PM84 °FSunny.No wind23%29.76 "Hg10 mi
3:56 PM84 °FSunny.8 mph15%29.77 "Hg10 mi
2:56 PM84 °FSunny.N/A17%29.78 "Hg10 mi
1:56 PM84 °FSunny.8 mph18%29.79 "Hg10 mi
12:56 PM83 °FSunny.3 mph18%29.81 "Hg10 mi
11:56 AM81 °FSunny.3 mph18%29.82 "Hg10 mi
10:56 AM79 °FSunny.8 mph29%29.83 "Hg10 mi
9:56 AM74 °FSunny.8 mph37%29.85 "Hg10 mi
Weather by CustomWeather, © 2016

See weather overviewHow to use our weather pages